FW6587 Weather Reports


time (UTC)temp
C
wind
direction
speed
KPH
gust
KPH
rain 1hr
cm
rain 24hr
cm
rain mn
cm
humidity
%
barometer
mb
20260906224553 32 260 1.6 8.0 0.00 0.00 0.00 32 1025.0
20260906223105 31 0 0.0 8.0 0.00 0.00 0.00 34 1025.1
20260906221604 32 314 0.0 9.7 0.00 0.00 0.00 32 1025.5
20260906220100 32 0 0.0 6.4 0.00 0.00 0.00 33 1025.7
20260906214554 32 0 1.6 11.3 0.00 0.00 0.00 32 1025.8
20260906213105 32 98 0.0 3.2 0.00 0.00 0.00 33 1026.1
20260906211605 32 142 1.6 8.0 0.00 0.00 0.00 34 1026.4
20260906210105 31 117 0.0 4.8 0.00 0.00 0.00 34 1026.6
20260906204603 31 0 0.0 11.3 0.00 0.00 0.00 33 1026.8
20260906203101 31 90 0.0 11.3 0.00 0.00 0.00 32 1027.0
20260906201604 32 131 1.6 9.7 0.00 0.00 0.00 30 1027.2
20260906200119 31 66 4.8 14.5 0.00 0.00 0.00 31 1027.3
20260906194557 31 136 0.0 6.4 0.00 0.00 0.00 34 1027.3
20260906193055 31 339 0.0 9.7 0.00 0.00 0.00 32 1027.6
20260906191553 30 134 1.6 11.3 0.00 0.00 0.00 32 1027.9
20260906190143 29 97 0.0 6.4 0.00 0.00 0.00 36 1028.0
20260906184558 29 0 0.0 12.9 0.00 0.00 0.00 36 1028.3
20260906183101 28 325 3.2 11.3 0.00 0.00 0.00 38 1028.7
20260906181609 28 146 1.6 11.3 0.00 0.00 0.00 40 1029.0
20260906180114 27 119 1.6 4.8 0.00 0.00 0.00 43 1029.3
20260906174607 27 98 0.0 6.4 0.00 0.00 0.00 43 1029.5
20260906173120 26 0 0.0 4.8 0.00 0.00 0.00 45 1029.9
20260906171603 26 55 1.6 6.4 0.00 0.00 0.00 46 1030.1
20260906170106 25 114 0.0 9.7 0.00 0.00 0.00 49 1030.3
20260906164555 24 0 0.0 4.8 0.00 0.00 0.00 49 1030.4
20260906163101 24 262 0.0 3.2 0.00 0.00 0.00 53 1030.4
20260906161602 23 0 0.0 3.2 0.00 0.00 0.00 55 1030.4
20260906160100 23 0 0.0 4.8 0.00 0.00 0.00 55 1030.4
20260906154554 23 0 0.0 1.6 0.00 0.00 0.00 58 1030.4
20260906153104 22 0 0.0 0.0 0.00 0.00 0.00 63 1030.2
20260906151603 21 0 0.0 0.0 0.00 0.00 0.00 65 1030.4
20260906150059 21 0 0.0 0.0 0.00 0.00 0.00 67 1030.6
20260906144553 20 0 0.0 0.0 0.00 0.00 0.00 69 1030.6
20260906143109 19 0 0.0 0.0 0.00 0.00 0.00 71 1030.7
20260906141600 18 0 0.0 0.0 0.00 0.00 0.00 76 1030.7
20260906140057 17 0 0.0 0.0 0.00 0.00 0.00 77 1030.7
20260906134552 16 0 0.0 0.0 0.00 0.00 0.00 77 1030.7
20260906133114 16 0 0.0 0.0 0.00 0.00 0.00 76 1030.4
20260906131604 15 0 0.0 0.0 0.00 0.00 0.00 74 1030.3
20260906130117 15 0 0.0 0.0 0.00 0.00 0.00 73 1030.3
20260906124601 16 0 0.0 0.0 0.00 0.00 0.00 72 1030.2
20260906123057 16 0 0.0 0.0 0.00 0.00 0.00 72 1030.2
20260906121555 16 0 0.0 0.0 0.00 0.00 0.00 71 1030.2
20260906114559 16 0 0.0 0.0 0.00 0.00 0.00 71 1030.2
20260906113102 17 0 0.0 0.0 0.00 0.00 0.00 71 1030.1
20260906111609 17 0 0.0 0.0 0.00 0.00 0.00 71 1029.9
20260906110103 17 0 0.0 0.0 0.00 0.00 0.00 70 1029.9
20260906104602 17 0 0.0 0.0 0.00 0.00 0.00 69 1029.7
20260906103106 17 0 0.0 0.0 0.00 0.00 0.00 65 1029.7
20260906101610 17 0 0.0 0.0 0.00 0.00 0.00 60 1029.7
20260906100105 18 0 0.0 0.0 0.00 0.00 0.00 59 1029.7
20260906094608 18 0 0.0 0.0 0.00 0.00 0.00 58 1029.6
20260906093107 18 0 0.0 0.0 0.00 0.00 0.00 56 1029.8
20260906091604 19 0 0.0 0.0 0.00 0.00 0.00 55 1029.5
20260906090137 19 0 0.0 0.0 0.00 0.00 0.00 53 1029.5
20260906084627 20 0 0.0 0.0 0.00 0.00 0.00 53 1029.4
20260906083053 20 0 0.0 0.0 0.00 0.00 0.00 52 1029.3
20260906081602 20 0 0.0 0.0 0.00 0.00 0.00 51 1029.0
20260906080109 20 0 0.0 0.0 0.00 0.00 0.00 51 1029.0
20260906074601 20 0 0.0 0.0 0.00 0.00 0.00 50 1028.9
20260906073054 20 0 0.0 0.0 0.00 0.00 0.00 51 1028.9
20260906071553 21 0 0.0 0.0 0.00 0.00 0.00 52 1029.0
20260906070105 21 0 0.0 0.0 0.00 0.00 0.00 50 1028.8
20260906064556 21 0 0.0 0.0 0.00 0.00 0.00 50 1029.1
20260906063057 22 0 0.0 0.0 0.00 0.00 0.00 49 1029.2
20260906061604 22 0 0.0 0.0 0.00 0.00 0.00 49 1029.1
20260906060105 22 0 0.0 0.0 0.00 0.00 0.00 49 1029.2
20260906054603 23 0 0.0 1.6 0.00 0.00 0.00 48 1029.2
20260906053108 23 236 0.0 3.2 0.00 0.00 0.00 49 1029.3
20260906051608 23 252 4.8 12.9 0.00 0.00 0.00 44 1029.4
20260906044600 23 0 0.0 3.2 0.00 0.00 0.00 40 1029.9
20260906043104 23 0 0.0 0.0 0.00 0.00 0.00 40 1029.3
20260906041606 23 0 0.0 3.2 0.00 0.00 0.00 39 1028.8
20260906040101 23 0 0.0 1.6 0.00 0.00 0.00 38 1028.7
20260906034608 23 0 0.0 6.4 0.00 0.00 0.00 38 1028.6
20260906033053 23 0 0.0 1.6 0.00 0.00 0.00 37 1028.3
20260906031600 23 0 0.0 1.6 0.00 0.00 0.00 36 1028.2
20260906030059 23 0 0.0 1.6 0.00 0.00 0.00 37 1028.0
20260906024624 24 0 0.0 1.6 0.00 0.00 0.00 36 1027.7
20260906023101 25 0 0.0 1.6 0.00 0.00 0.00 33 1027.4
20260906021602 25 0 0.0 0.0 0.00 0.00 0.00 34 1027.3
20260906020106 26 0 0.0 0.0 0.00 0.00 0.00 34 1027.3
20260906014554 26 0 0.0 3.2 0.00 0.00 0.00 32 1027.0
20260906013053 27 0 0.0 1.6 0.00 0.00 0.00 33 1026.9
20260906011559 27 0 0.0 4.8 0.00 0.00 0.00 30 1027.1
20260906010127 28 274 0.0 6.4 0.00 0.00 0.00 28 1027.1
20260906004600 29 235 0.0 4.8 0.00 0.00 0.00 26 1027.0
20260906003054 30 0 0.0 3.2 0.00 0.00 0.00 26 1027.1
20260906001604 30 0 0.0 0.0 0.00 0.00 0.00 26 1027.0
20260906000104 31 0 0.0 1.6 0.00 0.00 0.00 23 1026.9
20260905234557 32 0 0.0 0.0 0.00 0.00 0.00 23 1026.8
20260905233053 32 0 0.0 3.2 0.00 0.00 0.00 22 1026.8
20260905231555 32 158 0.0 6.4 0.00 0.00 0.00 23 1026.8
20260905230125 33 0 1.6 11.3 0.00 0.00 0.00 20 1026.6